TimeEST,TemperatureF,Dew PointF,Humidity,Sea Level PressureIn,VisibilityMPH,Wind Direction,Wind SpeedMPH,Gust SpeedMPH,PrecipitationIn,Events,Conditions,WindDirDegrees,DateUTC
12:51 AM,69.1,66.0,90,30.08,7.0,SW,13.8,21.9,N/A,,Clear,230,2013-12-07 05:51:00
1:51 AM,69.1,66.0,90,30.07,7.0,SW,16.1,-,N/A,,Clear,220,2013-12-07 06:51:00
2:51 AM,70.0,66.9,90,30.07,7.0,SW,15.0,24.2,N/A,,Clear,230,2013-12-07 07:51:00
3:51 AM,69.1,66.0,90,30.07,8.0,SW,13.8,23.0,N/A,,Clear,230,2013-12-07 08:51:00
4:38 AM,70.0,66.9,90,30.09,7.0,WSW,12.7,-,N/A,,Mostly Cloudy,240,2013-12-07 09:38:00
4:51 AM,70.0,66.9,90,30.09,6.0,WSW,15.0,-,N/A,,Mostly Cloudy,240,2013-12-07 09:51:00
5:51 AM,68.0,66.0,93,30.09,6.0,WSW,12.7,21.9,N/A,,Overcast,240,2013-12-07 10:51:00
6:51 AM,68.0,66.0,93,30.11,5.0,WSW,11.5,-,N/A,,Overcast,240,2013-12-07 11:51:00
7:16 AM,68.0,66.0,93,30.12,3.0,WSW,11.5,-,N/A,,Overcast,240,2013-12-07 12:16:00
7:26 AM,68.0,66.9,96,30.12,4.0,WSW,13.8,20.7,N/A,,Overcast,250,2013-12-07 12:26:00
7:51 AM,68.0,66.0,93,30.13,3.0,WSW,12.7,-,N/A,,Overcast,240,2013-12-07 12:51:00
7:59 AM,68.0,66.0,93,30.13,3.0,WSW,12.7,20.7,N/A,,Overcast,240,2013-12-07 12:59:00
8:23 AM,55.9,54.0,93,30.18,7.0,NNE,8.1,21.9,N/A,,Overcast,20,2013-12-07 13:23:00
8:51 AM,54.0,52.0,93,30.20,10.0,NNE,11.5,24.2,0.00,Rain,Light Rain,30,2013-12-07 13:51:00
9:11 AM,52.0,51.1,97,30.20,10.0,NNE,12.7,21.9,0.00,Rain,Light Rain,20,2013-12-07 14:11:00
9:51 AM,50.0,48.0,93,30.23,10.0,NNE,15.0,27.6,0.00,Rain,Light Rain,30,2013-12-07 14:51:00
10:51 AM,50.0,48.0,93,30.24,10.0,NNE,11.5,29.9,0.01,,Overcast,30,2013-12-07 15:51:00
11:51 AM,50.0,46.9,89,30.25,5.0,NNE,16.1,28.8,0.01,Rain,Light Rain,20,2013-12-07 16:51:00
12:06 PM,50.0,46.9,89,30.25,10.0,NNE,13.8,26.5,0.01,Rain,Light Rain,20,2013-12-07 17:06:00
12:51 PM,50.0,46.9,89,30.24,10.0,NNE,13.8,26.5,0.01,,Overcast,20,2013-12-07 17:51:00
1:25 PM,50.0,46.9,89,30.24,10.0,NNE,15.0,28.8,N/A,,Overcast,20,2013-12-07 18:25:00
1:51 PM,50.0,46.9,89,30.24,4.0,NNE,12.7,27.6,0.00,Rain,Light Rain,30,2013-12-07 18:51:00
2:24 PM,50.0,46.9,89,30.25,10.0,NNE,15.0,26.5,0.00,,Overcast,20,2013-12-07 19:24:00
2:51 PM,50.0,46.0,86,30.26,9.0,NNE,16.1,25.3,0.00,Rain,Light Rain,20,2013-12-07 19:51:00
3:35 PM,48.0,46.0,93,30.29,2.5,NNE,13.8,25.3,0.01,Rain,Light Rain,20,2013-12-07 20:35:00
3:39 PM,48.9,46.0,90,30.29,3.0,NNE,12.7,25.3,0.01,Rain,Light Rain,20,2013-12-07 20:39:00
3:51 PM,48.0,46.0,93,30.29,5.0,NNE,11.5,21.9,0.02,Rain,Light Rain,20,2013-12-07 20:51:00
4:47 PM,48.2,46.4,93,30.31,6.0,NNE,13.8,24.2,0.00,Rain,Light Rain,30,2013-12-07 21:47:00
4:51 PM,48.9,46.0,90,30.31,8.0,NNE,15.0,24.2,0.00,Rain,Light Rain,30,2013-12-07 21:51:00
5:18 PM,48.9,46.0,90,30.32,10.0,NNE,15.0,27.6,0.00,,Overcast,30,2013-12-07 22:18:00
5:51 PM,48.9,46.0,90,30.33,10.0,NNE,12.7,28.8,0.00,,Overcast,30,2013-12-07 22:51:00
5:59 PM,48.9,46.0,90,30.33,10.0,NNE,12.7,23.0,N/A,,Overcast,30,2013-12-07 22:59:00
6:08 PM,48.9,45.0,86,30.33,10.0,NNE,12.7,26.5,N/A,,Overcast,30,2013-12-07 23:08:00
6:51 PM,50.0,44.1,80,30.35,10.0,NNE,13.8,25.3,N/A,,Overcast,30,2013-12-07 23:51:00
7:51 PM,48.9,45.0,86,30.37,10.0,NNE,16.1,24.2,0.04,Rain,Light Rain,30,2013-12-08 00:51:00
8:51 PM,48.0,45.0,89,30.38,10.0,NE,13.8,29.9,0.01,Rain,Light Rain,40,2013-12-08 01:51:00
9:51 PM,48.0,44.1,86,30.39,10.0,NNE,16.1,29.9,0.01,Rain,Light Rain,20,2013-12-08 02:51:00
10:51 PM,48.0,44.1,86,30.39,9.0,NNE,15.0,27.6,0.00,,Overcast,30,2013-12-08 03:51:00
11:51 PM,48.9,44.1,83,30.39,10.0,NNE,13.8,26.5,N/A,,Overcast,30,2013-12-08 04:51:00